Starlink 11190

operational
NORAD ID: 60911 Int'l Des: 2024-154 Owner: SPXS Country: US Constellation: starlink
LEOCIRCULAR

About Starlink 11190

Description loading...

Live Position

Loading 3D Globe...

Upcoming Passes

Altitude History

Altitude vs Time

uPlot chart will show altitude changes over time

Two-Line Element Set

1 60911U 24154J 25350.91705145 -.00002289 00000-0 -14042-4 0 9998
2 60911 53.1574 179.3300 0000760 113.0958 247.0140 15.69717643 75501
Epoch: Dec 16, 2025 • Age: 7 hours

Current Status

Altitude 360.2 km
Velocity 7.70 km/s
Sub-Earth Point 24.17°N, 178.98°W
Launch Date Aug 31, 2024
Age 1.2 years
Type internet

Technical Details

Classification Payload
Mass 960.00 kg
Dry Mass 910.00 kg
Total Mass 960.00 kg
Length 0.30 m
Diameter 4.10 m
Span 29.00 m
Shape Box + pan
Manufacturer SPXS
Bus Type Starlink V2MD
Phase Status In Orbit
Owner/State SPXS/US

Large Constellations

Loading constellations...